Location: Unspecified
(0.0000°N, 0.0000°E)
Time: 06:41:50
(UTC+01:00)

GPS 2-15 Rocket1 - Visible Passes

Search period start: 06 December 2016 00:00
Search period end: 16 December 2016 00:00
Orbit: 625 x 676 km, 19.8° (Epoch: 05 December)

Date Brightness Start Highest point End Pass type
(mag) Time Alt. Az. Time Alt. Az. Time Alt. Az.
06 Dec 5.3 20:08:03 10° N 20:08:41 11° N 20:08:41 11° N visible
07 Dec 5.3 20:32:55 10° NNW 20:33:48 13° NNW 20:33:48 13° NNW visible
08 Dec 5.2 19:16:12 10° N 19:18:05 12° NNE 19:19:58 10° NE visible
08 Dec 5.6 20:58:32 10° NW 20:59:00 12° NW 20:59:00 12° NW visible
09 Dec 4.6 19:41:21 10° NNW 19:44:48 20° NNE 19:46:36 16° NE visible
10 Dec 6.0 06:12:06 10° S 06:13:13 11° SSE 06:14:20 10° SSE visible
10 Dec 3.8 20:07:02 10° NW 20:11:21 34° NNE 20:11:59 32° NE visible
11 Dec 3.2 20:33:06 10° WNW 20:37:28 62° N 20:37:28 62° N visible
12 Dec 5.9 05:20:28 10° S 05:21:54 11° SSE 05:23:21 10° SSE visible
12 Dec 3.8 19:15:31 10° NW 19:20:00 37° NNE 19:24:24 10° E visible
12 Dec 4.1 20:59:31 10° WNW 21:03:01 45° W 21:03:01 45° W visible
13 Dec 5.6 05:45:23 10° SSW 05:48:36 18° SSE 05:51:51 10° ESE visible
13 Dec 3.1 19:41:38 10° WNW 19:46:27 72° NNE 19:50:53 12° ESE visible
13 Dec 5.3 21:26:25 10° W 21:28:35 23° WSW 21:28:35 23° WSW visible
14 Dec 5.8 04:29:34 11° S 04:30:36 12° SSE 04:32:20 10° SE visible
14 Dec 4.9 06:11:01 10° SW 06:15:10 30° SSE 06:19:23 10° E visible
14 Dec 3.6 20:08:08 10° W 20:12:54 58° SSW 20:16:29 17° SE visible
14 Dec 6.2 21:53:50 10° WSW 21:54:11 11° WSW 21:54:11 11° WSW visible
15 Dec 5.4 04:54:56 14° SSW 04:57:17 19° SSE 05:00:38 10° ESE visible
15 Dec 4.7 20:35:05 10° W 20:39:22 31° SSW 20:42:02 18° SSE visible
